User: anonymous   Login
Location: Haliburton Scout Reserve
(45.0900°N, 78.3200°W)
Time: 10:16:31
(UTC-04:00)
Language:

IDEFIX/ARIANE 42P - Orbit

View from above orbital plane
View from above orbital plane
View from above satellite
View from above satellite

Ground track
Ground track

The orbit data is extracted from the following two-line orbital elements,

1 27422U 02021B   16243.14040209 -.00000027  00000-0  54208-5 0  9992
2 27422  98.2299 253.5761 0012829  25.3162 334.8647 14.29247952745105
Epoch (UTC): 30 August 2016 03:22:10
Eccentricity: 0.0012829
inclination: 98.2299°
perigee height: 785 km
apogee height: 803 km
right ascension of ascending node: 253.5761°
argument of perigee: 25.3162°
revolutions per day: 14.29247952
mean anomaly at epoch: 334.8647°
orbit number at epoch: 74510

The dashed part of the orbit path shows where the satellite is in the earth's shadow,  

DLR